| time (UTC) | temp F | wind direction | speed MPH | gust MPH | rain 1hr in | rain 24hr in | rain mn in | humidity % | barometer mb |
| 20260502221852 | 62 | 82 | 0.0 | 0.0 | 0.00 | 0.00 | 0.00 | 63 | 1012.3 |
| 20260502220337 | 62 | 82 | 0.0 | 0.0 | 0.00 | 0.00 | 0.00 | 62 | 1012.3 |
| 20260502214820 | 62 | 82 | 0.0 | 0.0 | 0.00 | 0.00 | 0.00 | 62 | 1012.2 |
| 20260502213346 | 62 | 82 | 0.0 | 0.0 | 0.00 | 0.00 | 0.00 | 62 | 1012.2 |
| 20260502211816 | 62 | 82 | 0.0 | 0.0 | 0.00 | 0.00 | 0.00 | 61 | 1012.2 |
| 20260502210323 | 62 | 80 | 0.0 | 0.0 | 0.00 | 0.00 | 0.00 | 61 | 1011.8 |
| 20260502204830 | 62 | 82 | 0.0 | 0.0 | 0.00 | 0.00 | 0.00 | 62 | 1011.8 |
| 20260502203335 | 61 | 81 | 0.0 | 0.0 | 0.00 | 0.00 | 0.00 | 62 | 1011.4 |
| 20260502201822 | 61 | 82 | 0.0 | 0.0 | 0.00 | 0.00 | 0.00 | 62 | 1011.4 |
| 20260502200347 | 61 | 82 | 0.0 | 0.0 | 0.00 | 0.00 | 0.00 | 61 | 1011.2 |
| 20260502194853 | 61 | 82 | 0.0 | 0.0 | 0.00 | 0.00 | 0.00 | 61 | 1011.2 |
| 20260502193311 | 62 | 82 | 0.0 | 0.0 | 0.00 | 0.00 | 0.00 | 63 | 1011.2 |
| 20260502191818 | 62 | 82 | 0.0 | 0.0 | 0.00 | 0.00 | 0.00 | 63 | 1011.3 |
| 20260502190324 | 62 | 82 | 0.0 | 0.0 | 0.00 | 0.00 | 0.00 | 61 | 1011.4 |
| 20260502184813 | 63 | 82 | 0.0 | 0.0 | 0.00 | 0.00 | 0.00 | 60 | 1011.3 |
| 20260502183320 | 62 | 98 | 0.0 | 0.0 | 0.00 | 0.00 | 0.00 | 60 | 1011.2 |
| 20260502181819 | 61 | 98 | 0.0 | 0.0 | 0.00 | 0.00 | 0.00 | 69 | 1011.2 |
| 20260502180343 | 61 | 98 | 0.0 | 0.0 | 0.00 | 0.00 | 0.00 | 68 | 1010.9 |
| 20260502170331 | 61 | 98 | 0.0 | 0.0 | 0.00 | 0.00 | 0.00 | 70 | 1011.0 |
| 20260502163316 | 61 | 98 | 0.0 | 0.0 | 0.00 | 0.00 | 0.00 | 70 | 1011.0 |
| 20260502161822 | 61 | 98 | 0.0 | 0.0 | 0.00 | 0.00 | 0.00 | 71 | 1010.9 |
| 20260502160328 | 61 | 98 | 0.0 | 0.0 | 0.00 | 0.00 | 0.00 | 70 | 1011.0 |
| 20260502151828 | 62 | 98 | 0.0 | 0.0 | 0.00 | 0.00 | 0.00 | 69 | 1011.2 |
| 20260502150326 | 62 | 98 | 0.0 | 0.0 | 0.00 | 0.00 | 0.00 | 68 | 1011.3 |
| 20260502130311 | 67 | 98 | 0.0 | 0.0 | 0.00 | 0.00 | 0.00 | 52 | 1011.0 |
| 20260502123319 | 68 | 98 | 0.0 | 0.0 | 0.00 | 0.00 | 0.00 | 53 | 1010.8 |
| 20260502121825 | 69 | 98 | 0.0 | 0.0 | 0.00 | 0.00 | 0.00 | 50 | 1010.6 |
| 20260502120355 | 69 | 98 | 0.0 | 0.0 | 0.00 | 0.00 | 0.00 | 46 | 1010.4 |
| 20260502114859 | 69 | 98 | 0.0 | 0.0 | 0.00 | 0.00 | 0.00 | 43 | 1010.2 |
| 20260502113315 | 70 | 98 | 0.0 | 0.0 | 0.00 | 0.00 | 0.00 | 43 | 1009.8 |
| 20260502111822 | 70 | 98 | 0.0 | 0.0 | 0.00 | 0.00 | 0.00 | 43 | 1009.6 |
| 20260502110328 | 71 | 98 | 0.0 | 0.0 | 0.00 | 0.00 | 0.00 | 45 | 1009.3 |
| 20260502104832 | 71 | 98 | 0.0 | 0.0 | 0.00 | 0.00 | 0.00 | 42 | 1009.0 |
| 20260502103331 | 72 | 98 | 0.0 | 0.0 | 0.00 | 0.00 | 0.00 | 41 | 1008.9 |
| 20260502101824 | 72 | 98 | 0.0 | 0.0 | 0.00 | 0.00 | 0.00 | 39 | 1008.8 |
| 20260502100321 | 73 | 98 | 0.0 | 0.0 | 0.00 | 0.00 | 0.00 | 38 | 1008.7 |
| 20260502090324 | 76 | 98 | 0.0 | 0.0 | 0.00 | 0.00 | 0.00 | 31 | 1007.9 |
| 20260502070320 | 80 | 96 | 0.0 | 0.0 | 0.00 | 0.00 | 0.00 | 31 | 1006.3 |
| 20260502064834 | 81 | 91 | 0.0 | 0.0 | 0.00 | 0.00 | 0.00 | 31 | 1006.1 |
| 20260502063334 | 81 | 91 | 0.0 | 0.0 | 0.00 | 0.00 | 0.00 | 31 | 1005.9 |
| 20260502061813 | 82 | 88 | 0.0 | 0.0 | 0.00 | 0.00 | 0.00 | 32 | 1005.7 |
| 20260502060318 | 81 | 59 | 0.0 | 0.0 | 0.00 | 0.00 | 0.00 | 33 | 1005.6 |
| 20260502054824 | 81 | 59 | 0.0 | 0.0 | 0.00 | 0.00 | 0.00 | 34 | 1005.5 |
| 20260502053349 | 81 | 61 | 0.0 | 0.0 | 0.00 | 0.00 | 0.00 | 35 | 1005.3 |
| 20260502051836 | 82 | 51 | 0.0 | 0.0 | 0.00 | 0.00 | 0.00 | 36 | 1005.3 |
| 20260502050318 | 82 | 51 | 0.0 | 0.0 | 0.00 | 0.00 | 0.00 | 30 | 1005.1 |
| 20260502044826 | 82 | 106 | 2.0 | 0.0 | 0.00 | 0.00 | 0.00 | 31 | 1005.0 |
| 20260502043331 | 81 | 42 | 0.0 | 0.0 | 0.00 | 0.00 | 0.00 | 36 | 1005.0 |
| 20260502041840 | 80 | 106 | 0.0 | 0.0 | 0.00 | 0.00 | 0.00 | 35 | 1004.7 |
| 20260502040317 | 81 | 105 | 0.0 | 0.0 | 0.00 | 0.00 | 0.00 | 36 | 1004.7 |
| 20260502034824 | 82 | 304 | 1.0 | 0.0 | 0.00 | 0.00 | 0.00 | 34 | 1004.7 |
| 20260502033350 | 82 | 163 | 0.0 | 0.0 | 0.00 | 0.00 | 0.00 | 31 | 1004.6 |
| 20260502031813 | 81 | 163 | 0.0 | 0.0 | 0.00 | 0.00 | 0.00 | 33 | 1004.4 |
| 20260502030319 | 80 | 161 | 0.0 | 0.0 | 0.00 | 0.00 | 0.00 | 34 | 1004.1 |
| 20260502024847 | 80 | 126 | 0.0 | 0.0 | 0.00 | 0.00 | 0.00 | 36 | 1004.0 |
| 20260502023314 | 79 | 132 | 0.0 | 0.0 | 0.00 | 0.00 | 0.00 | 34 | 1003.9 |
| 20260502021841 | 78 | 127 | 0.0 | 0.0 | 0.00 | 0.00 | 0.00 | 36 | 1003.8 |
| 20260502020327 | 78 | 141 | 0.0 | 0.0 | 0.00 | 0.00 | 0.00 | 37 | 1003.7 |
| 20260502014826 | 77 | 133 | 0.0 | 0.0 | 0.00 | 0.00 | 0.00 | 38 | 1003.6 |
| 20260502013316 | 76 | 132 | 0.0 | 0.0 | 0.00 | 0.00 | 0.00 | 41 | 1003.6 |
| 20260502011824 | 75 | 173 | 0.0 | 0.0 | 0.00 | 0.00 | 0.00 | 43 | 1003.6 |
| 20260502010349 | 74 | 177 | 0.0 | 0.0 | 0.00 | 0.00 | 0.00 | 46 | 1003.5 |
| 20260502004837 | 74 | 120 | 0.0 | 0.0 | 0.00 | 0.00 | 0.00 | 47 | 1003.5 |
| 20260502003334 | 73 | 122 | 0.0 | 0.0 | 0.00 | 0.00 | 0.00 | 49 | 1003.3 |
| 20260502001827 | 72 | 113 | 0.0 | 0.0 | 0.00 | 0.00 | 0.00 | 51 | 1003.1 |
| 20260502000325 | 71 | 109 | 1.0 | 0.0 | 0.00 | 0.00 | 0.00 | 51 | 1002.8 |
| 20260501234859 | 70 | 105 | 1.0 | 0.0 | 0.00 | 0.00 | 0.00 | 55 | 1003.1 |
| 20260501233315 | 68 | 145 | 0.0 | 0.0 | 0.00 | 0.00 | 0.00 | 56 | 1002.8 |
| 20260501231822 | 66 | 148 | 0.0 | 0.0 | 0.00 | 0.00 | 0.00 | 59 | 1002.8 |
| 20260501230329 | 64 | 164 | 0.0 | 0.0 | 0.00 | 0.00 | 0.00 | 63 | 1002.6 |
| 20260501224836 | 63 | 263 | 0.0 | 0.0 | 0.00 | 0.00 | 0.00 | 68 | 1002.0 |
| 20260501223315 | 62 | 264 | 0.0 | 0.0 | 0.00 | 0.00 | 0.00 | 70 | 1001.8 |